Location: Bradley Quarters
(33.5209°N, 92.1411°W)
Time: 04:57:02
(UTC+00:00)

Hubble Space Telescope - Visible Passes

Search period start: 26 February 2021 00:00
Search period end: 08 March 2021 00:00
Orbit: 536 x 539 km, 28.5° (Epoch: 25 February)

Date Brightness Start Highest point End Pass type
(mag) Time Alt. Az. Time Alt. Az. Time Alt. Az.
02 Mar 3.4 01:51:16 10° S 01:51:22 10° S 01:51:22 10° S visible
03 Mar 2.9 01:39:42 10° SSW 01:41:26 15° S 01:41:26 15° S visible
04 Mar 2.5 01:28:21 10° SSW 01:31:18 19° SSE 01:31:27 19° SSE visible
05 Mar 2.2 01:17:07 10° SW 01:20:22 22° SSE 01:21:25 20° SE visible
06 Mar 2.1 01:05:59 10° SW 01:09:26 26° SSE 01:11:20 18° SE visible
06 Mar 3.8 02:46:22 10° WSW 02:46:39 12° WSW 02:46:39 12° WSW visible
07 Mar 2.0 00:54:54 10° SW 00:58:30 29° SSE 01:01:12 15° ESE visible
07 Mar 3.3 02:35:28 10° WSW 02:36:32 17° WSW 02:36:32 17° WSW visible
